Year,Month,Day,Hour,Minute,Value (Times are PST for temperature in C)
2008,04,02,00,00,0.80
2008,04,02,00,01,0.80
2008,04,02,00,02,0.80
2008,04,02,00,03,0.80
2008,04,02,00,04,0.80
2008,04,02,00,05,0.80
2008,04,02,00,06,0.70
2008,04,02,00,07,0.80
2008,04,02,00,08,0.70
2008,04,02,00,09,0.80
2008,04,02,00,10,0.80
2008,04,02,00,11,0.80
2008,04,02,00,12,0.70
2008,04,02,00,13,0.70
2008,04,02,00,14,0.70
2008,04,02,00,15,0.70
2008,04,02,00,16,0.60
2008,04,02,00,17,0.60
2008,04,02,00,18,0.50
2008,04,02,00,19,0.50
2008,04,02,00,20,0.40
2008,04,02,00,21,0.40
2008,04,02,00,22,0.40
2008,04,02,00,23,0.30
2008,04,02,00,24,0.30
2008,04,02,00,25,0.30
2008,04,02,00,26,0.30
2008,04,02,00,27,0.30
2008,04,02,00,28,0.30
2008,04,02,00,29,0.30
2008,04,02,00,30,0.30
2008,04,02,00,31,0.30
2008,04,02,00,32,0.30
2008,04,02,00,33,0.30
2008,04,02,00,34,0.30
2008,04,02,00,35,0.30
2008,04,02,00,36,0.30
2008,04,02,00,37,0.30
2008,04,02,00,38,0.30
2008,04,02,00,39,0.30
2008,04,02,01,29,0.80
2008,04,02,01,30,0.80
2008,04,02,01,31,0.80
2008,04,02,01,32,0.80
2008,04,02,01,33,0.80
2008,04,02,01,34,0.80
2008,04,02,01,35,0.80
2008,04,02,01,36,0.80
2008,04,02,01,37,0.90
2008,04,02,01,38,0.90
2008,04,02,01,39,0.80
2008,04,02,01,40,0.80
2008,04,02,01,41,0.80
2008,04,02,01,42,0.80
2008,04,02,01,43,0.80
2008,04,02,01,44,0.80
2008,04,02,01,45,0.80
2008,04,02,01,46,0.80
2008,04,02,01,47,0.80
2008,04,02,01,48,0.80
2008,04,02,01,49,0.80
2008,04,02,01,50,0.80
2008,04,02,01,51,0.80
2008,04,02,01,52,0.90
2008,04,02,01,53,0.90
2008,04,02,01,54,0.90
2008,04,02,01,55,0.80
2008,04,02,01,56,0.80
2008,04,02,01,57,0.90
2008,04,02,01,58,0.90
2008,04,02,01,59,1.00
2008,04,02,02,00,1.00
2008,04,02,02,01,1.00
2008,04,02,02,02,1.00
2008,04,02,02,03,1.00
2008,04,02,02,04,1.00
2008,04,02,02,05,1.00
2008,04,02,02,06,1.00
2008,04,02,02,07,1.10
2008,04,02,02,08,1.10
2008,04,02,02,09,1.10
2008,04,02,02,10,1.20
2008,04,02,02,11,1.20
2008,04,02,02,12,1.20
2008,04,02,02,13,1.30
2008,04,02,02,14,1.20
2008,04,02,02,15,1.20
2008,04,02,02,16,1.20
2008,04,02,02,17,1.10
2008,04,02,02,18,1.10
2008,04,02,02,19,1.00
2008,04,02,02,20,1.00
2008,04,02,02,21,1.00
2008,04,02,02,22,1.00
2008,04,02,02,23,1.10
2008,04,02,02,24,1.10
2008,04,02,02,25,1.10
2008,04,02,02,26,1.10
2008,04,02,02,27,1.10
2008,04,02,02,28,1.10
2008,04,02,02,29,1.10
2008,04,02,02,30,1.00
2008,04,02,02,31,1.00
2008,04,02,02,32,1.00
2008,04,02,02,33,1.00
2008,04,02,02,34,0.90
2008,04,02,02,35,1.00
2008,04,02,02,36,0.90
2008,04,02,02,37,0.90
2008,04,02,02,38,0.90
2008,04,02,02,39,0.90
2008,04,02,02,40,1.00
2008,04,02,02,41,1.00
2008,04,02,02,42,1.00
2008,04,02,02,43,1.00
2008,04,02,02,44,1.00
2008,04,02,02,45,0.90
2008,04,02,02,46,0.90
2008,04,02,02,47,0.90
2008,04,02,02,48,0.90
2008,04,02,02,49,0.90
2008,04,02,02,50,0.90
2008,04,02,02,51,0.90
2008,04,02,02,52,0.90
2008,04,02,02,53,0.90
2008,04,02,02,54,0.80
2008,04,02,02,55,0.80
2008,04,02,02,56,0.80
2008,04,02,02,57,0.80
2008,04,02,02,58,0.80
2008,04,02,02,59,0.80
2008,04,02,03,00,0.70
2008,04,02,03,01,0.70
2008,04,02,03,02,0.70
2008,04,02,03,03,0.70
2008,04,02,03,04,0.70
2008,04,02,03,05,0.70
2008,04,02,03,06,0.70
2008,04,02,03,07,0.70
2008,04,02,03,08,0.70
2008,04,02,03,09,0.70
2008,04,02,03,10,0.70
2008,04,02,03,11,0.70
2008,04,02,03,12,0.80
2008,04,02,03,13,0.80
2008,04,02,03,14,0.80
2008,04,02,03,15,0.80
2008,04,02,03,16,0.80
2008,04,02,03,17,0.80
2008,04,02,03,18,0.80
2008,04,02,03,19,0.90
2008,04,02,03,20,0.80
2008,04,02,03,21,0.80
2008,04,02,03,22,0.80
2008,04,02,03,23,0.80
2008,04,02,03,24,0.90
2008,04,02,03,25,0.90
2008,04,02,03,26,0.90
2008,04,02,03,27,0.90
2008,04,02,03,28,0.90
2008,04,02,03,29,0.90
2008,04,02,03,30,0.90
2008,04,02,03,31,0.90
2008,04,02,03,32,0.90
2008,04,02,03,33,0.90
2008,04,02,03,34,0.90
2008,04,02,03,35,0.80
2008,04,02,03,36,0.80
2008,04,02,03,37,0.80
2008,04,02,03,38,0.80
2008,04,02,03,39,0.80
2008,04,02,03,40,0.90
2008,04,02,03,41,0.90
2008,04,02,03,42,0.90
2008,04,02,03,43,0.90
2008,04,02,03,44,0.90
2008,04,02,03,45,0.90
2008,04,02,03,46,0.90
2008,04,02,03,47,1.00
2008,04,02,03,48,1.00
2008,04,02,03,49,1.10
2008,04,02,03,50,1.00
2008,04,02,03,51,1.00
2008,04,02,03,52,1.00
2008,04,02,03,53,1.00
2008,04,02,03,54,0.90
2008,04,02,03,55,0.90
2008,04,02,03,56,0.90
2008,04,02,03,57,0.90
2008,04,02,03,58,0.90
2008,04,02,03,59,0.90
2008,04,02,04,00,0.80
2008,04,02,04,01,0.80
2008,04,02,04,02,0.80
2008,04,02,04,03,0.90
2008,04,02,04,04,0.80
2008,04,02,04,05,0.80
2008,04,02,04,06,0.80
2008,04,02,04,07,0.80
2008,04,02,04,08,0.80
2008,04,02,04,09,0.80
2008,04,02,04,10,0.80
2008,04,02,04,11,0.80
2008,04,02,04,12,0.80
2008,04,02,04,13,0.80
2008,04,02,04,14,0.80
2008,04,02,04,15,0.80
2008,04,02,04,16,0.80
2008,04,02,04,17,0.80
2008,04,02,04,18,0.70
2008,04,02,04,19,0.70
2008,04,02,04,20,0.70
2008,04,02,04,21,0.70
2008,04,02,04,22,0.70
2008,04,02,04,23,0.70
2008,04,02,04,24,0.70
2008,04,02,04,25,0.70
2008,04,02,04,26,0.70
2008,04,02,04,27,0.70
2008,04,02,04,28,0.70
2008,04,02,04,29,0.70
2008,04,02,04,30,0.70
2008,04,02,04,31,0.70
2008,04,02,04,32,0.70
2008,04,02,04,33,0.70
2008,04,02,04,34,0.60
2008,04,02,04,35,0.60
2008,04,02,04,36,0.60
2008,04,02,04,37,0.60
2008,04,02,04,38,0.70
2008,04,02,04,39,0.70
2008,04,02,04,40,0.70
2008,04,02,04,41,0.70
2008,04,02,04,42,0.70
2008,04,02,04,43,0.70
2008,04,02,04,44,0.70
2008,04,02,04,45,0.60
2008,04,02,04,46,0.60
2008,04,02,04,47,0.60
2008,04,02,04,48,0.60
2008,04,02,04,49,0.60
2008,04,02,04,50,0.60
2008,04,02,04,51,0.60
2008,04,02,04,52,0.60
2008,04,02,04,53,0.60
2008,04,02,04,54,0.60
2008,04,02,04,55,0.60
2008,04,02,04,56,0.60
2008,04,02,04,57,0.60
2008,04,02,04,58,0.60
2008,04,02,04,59,0.60
2008,04,02,05,00,0.60
2008,04,02,05,01,0.60
2008,04,02,05,02,0.60
2008,04,02,05,03,0.60
2008,04,02,05,04,0.60
2008,04,02,05,05,0.60
2008,04,02,05,06,0.60
2008,04,02,05,07,0.60
2008,04,02,05,08,0.60
2008,04,02,05,09,0.60
2008,04,02,05,10,0.70
2008,04,02,05,11,0.70
2008,04,02,05,12,0.70
2008,04,02,05,13,0.70
2008,04,02,05,14,0.70
2008,04,02,05,15,0.70
2008,04,02,05,16,0.70
2008,04,02,05,17,0.70
2008,04,02,05,18,0.80
2008,04,02,05,19,0.80
2008,04,02,05,20,0.80
2008,04,02,05,21,0.90
2008,04,02,05,22,0.90
2008,04,02,05,23,0.90
2008,04,02,05,24,0.90
2008,04,02,05,25,0.90
2008,04,02,05,26,0.90
2008,04,02,05,27,1.00
2008,04,02,05,28,1.00
2008,04,02,05,29,1.00
2008,04,02,05,30,1.00
2008,04,02,05,31,0.90
2008,04,02,05,32,0.90
2008,04,02,05,33,1.00
2008,04,02,05,34,0.90
2008,04,02,05,35,0.90
2008,04,02,05,36,0.90
2008,04,02,05,37,1.00
2008,04,02,05,38,1.00
2008,04,02,05,39,1.00
2008,04,02,05,40,1.10
2008,04,02,05,41,1.10
2008,04,02,05,42,1.10
2008,04,02,05,43,1.10
2008,04,02,05,44,1.10
2008,04,02,05,45,1.10
2008,04,02,05,46,1.10
2008,04,02,05,47,1.10
2008,04,02,05,48,1.10
2008,04,02,05,49,1.00
2008,04,02,05,50,1.00
2008,04,02,05,51,0.90
2008,04,02,05,52,0.90
2008,04,02,05,53,0.90
2008,04,02,05,54,0.90
2008,04,02,05,55,0.90
2008,04,02,05,56,0.90
2008,04,02,05,57,0.90
2008,04,02,05,58,0.90
2008,04,02,05,59,0.90
2008,04,02,06,00,0.90
2008,04,02,06,01,1.00
2008,04,02,06,02,1.00
2008,04,02,06,03,1.00
2008,04,02,06,04,1.00
2008,04,02,06,05,1.00
2008,04,02,06,06,1.10
2008,04,02,06,07,1.10
2008,04,02,06,08,1.10
2008,04,02,06,09,1.10
2008,04,02,06,10,1.20
2008,04,02,06,11,1.20
2008,04,02,06,12,1.20
2008,04,02,06,13,1.20
2008,04,02,06,14,1.20
2008,04,02,06,15,1.20
2008,04,02,06,16,1.10
2008,04,02,06,17,1.20
2008,04,02,06,18,1.20
2008,04,02,06,19,1.20
2008,04,02,06,20,1.20
2008,04,02,06,21,1.30
2008,04,02,06,22,1.30
2008,04,02,06,23,1.30
2008,04,02,06,24,1.30
2008,04,02,06,25,1.30
2008,04,02,06,26,1.30
2008,04,02,06,27,1.30
2008,04,02,06,28,1.30
2008,04,02,06,29,1.30
2008,04,02,06,30,1.20
2008,04,02,06,31,1.20
2008,04,02,06,32,1.30
2008,04,02,06,33,1.30
2008,04,02,06,34,1.30
2008,04,02,06,35,1.30
2008,04,02,06,36,1.30
2008,04,02,06,37,1.30
2008,04,02,06,38,1.30
2008,04,02,06,39,1.30
2008,04,02,06,40,1.30
2008,04,02,06,41,1.30
2008,04,02,06,42,1.30
2008,04,02,06,43,1.30
2008,04,02,06,44,1.20
2008,04,02,06,45,1.20
2008,04,02,06,46,1.20
2008,04,02,06,47,1.20
2008,04,02,06,48,1.20
2008,04,02,06,49,1.20
2008,04,02,06,50,1.20
2008,04,02,06,51,1.20
2008,04,02,06,52,1.20
2008,04,02,06,53,1.20
2008,04,02,06,54,1.20
2008,04,02,06,55,1.20
2008,04,02,06,56,1.20
2008,04,02,06,57,1.20
2008,04,02,06,58,1.20
2008,04,02,06,59,1.20
2008,04,02,07,00,1.20
2008,04,02,07,01,1.20
2008,04,02,07,02,1.20
2008,04,02,07,03,1.20
2008,04,02,07,04,1.20
2008,04,02,07,05,1.10
2008,04,02,07,06,1.10
2008,04,02,07,07,1.10
2008,04,02,07,08,1.10
2008,04,02,07,09,1.00
2008,04,02,07,10,1.00
2008,04,02,07,11,1.00
2008,04,02,07,12,1.00
2008,04,02,07,13,0.90
2008,04,02,07,14,0.90
2008,04,02,07,15,0.90
2008,04,02,07,16,0.90
2008,04,02,07,17,0.90
2008,04,02,07,18,0.90
2008,04,02,07,19,0.90
2008,04,02,07,20,0.90
2008,04,02,07,21,0.90
2008,04,02,07,22,0.90
2008,04,02,07,23,0.90
2008,04,02,07,24,0.90
2008,04,02,07,25,0.90
2008,04,02,07,26,0.90
2008,04,02,07,27,0.90
2008,04,02,07,28,0.90
2008,04,02,07,29,0.90
2008,04,02,07,30,1.00
2008,04,02,07,31,1.00
2008,04,02,07,32,1.00
2008,04,02,07,33,1.00
2008,04,02,07,34,1.00
2008,04,02,07,35,0.90
2008,04,02,07,36,0.90
2008,04,02,07,37,0.90
2008,04,02,07,38,0.90
2008,04,02,07,39,0.90
2008,04,02,07,40,0.90
2008,04,02,07,41,0.90
2008,04,02,07,42,0.90
2008,04,02,07,43,0.90
2008,04,02,07,44,0.90
2008,04,02,07,45,0.90
2008,04,02,07,46,0.90
2008,04,02,07,47,0.90
2008,04,02,07,48,0.90
2008,04,02,07,49,1.00
2008,04,02,07,50,1.00
2008,04,02,07,51,1.00
2008,04,02,07,52,1.00
2008,04,02,07,53,1.00
2008,04,02,07,54,1.00
2008,04,02,07,55,1.00
2008,04,02,07,56,1.00
2008,04,02,07,57,1.00
2008,04,02,07,58,1.00
2008,04,02,07,59,1.00
2008,04,02,08,00,1.00
2008,04,02,08,01,1.00
2008,04,02,08,02,1.00
2008,04,02,08,03,1.00
2008,04,02,08,04,1.00
2008,04,02,08,05,1.10
2008,04,02,08,06,1.10
2008,04,02,08,07,1.10
2008,04,02,08,08,1.10
2008,04,02,08,09,1.10
2008,04,02,08,10,1.10
2008,04,02,08,11,1.10
2008,04,02,08,12,1.20
2008,04,02,08,13,1.20
2008,04,02,08,14,1.20
2008,04,02,08,15,1.20
2008,04,02,08,16,1.20
2008,04,02,08,17,1.20
2008,04,02,08,18,1.20
2008,04,02,08,19,1.30
2008,04,02,08,20,1.30
2008,04,02,08,21,1.30
2008,04,02,08,22,1.30
2008,04,02,08,23,1.30
2008,04,02,08,24,1.30
2008,04,02,08,25,1.30
2008,04,02,08,26,1.30
2008,04,02,08,27,1.30
2008,04,02,08,28,1.30
2008,04,02,08,29,1.30
2008,04,02,08,30,1.40
2008,04,02,08,31,1.40
2008,04,02,08,32,1.50
2008,04,02,08,33,1.50
2008,04,02,08,34,1.60
2008,04,02,08,35,1.60
2008,04,02,08,36,1.70
2008,04,02,08,37,1.70
2008,04,02,08,38,1.70
2008,04,02,08,39,1.80
2008,04,02,08,40,1.80
2008,04,02,08,41,1.80
2008,04,02,08,42,1.90
2008,04,02,08,43,2.00
2008,04,02,08,44,2.10
2008,04,02,08,45,2.20
2008,04,02,08,46,2.30
2008,04,02,08,47,2.40
2008,04,02,08,48,2.50
2008,04,02,08,49,2.60
2008,04,02,08,50,2.70
2008,04,02,08,51,2.80
2008,04,02,08,52,2.90
2008,04,02,08,53,3.00
2008,04,02,08,54,3.20
2008,04,02,08,55,3.30
2008,04,02,08,56,3.40
2008,04,02,08,57,3.60
2008,04,02,08,58,3.70
2008,04,02,08,59,3.90
2008,04,02,09,00,4.00
2008,04,02,09,01,4.10
2008,04,02,09,02,4.30
2008,04,02,09,03,4.40
2008,04,02,09,04,4.60
2008,04,02,09,05,4.70
2008,04,02,09,06,4.80
2008,04,02,09,07,5.00
2008,04,02,09,08,5.20
2008,04,02,09,09,5.40
2008,04,02,09,10,5.60
2008,04,02,09,11,5.60
2008,04,02,09,12,5.70
2008,04,02,09,13,5.70
2008,04,02,09,14,5.70
2008,04,02,09,15,5.70
2008,04,02,09,16,5.70
2008,04,02,09,17,5.70
2008,04,02,09,18,5.70
2008,04,02,09,19,5.70
2008,04,02,09,20,5.60
2008,04,02,09,21,5.60
2008,04,02,09,22,5.60
2008,04,02,09,23,5.60
2008,04,02,09,24,5.50
2008,04,02,09,25,5.50
2008,04,02,09,26,5.40
2008,04,02,09,27,5.40
2008,04,02,09,28,5.40
2008,04,02,09,29,5.40
2008,04,02,09,30,5.30
2008,04,02,09,31,5.30
2008,04,02,09,32,5.30
2008,04,02,09,33,5.30
2008,04,02,09,34,5.30
2008,04,02,09,35,5.40
2008,04,02,09,36,5.40
2008,04,02,09,37,5.40
2008,04,02,09,38,5.40
2008,04,02,09,39,5.50
2008,04,02,09,40,5.50
2008,04,02,09,41,5.60
2008,04,02,09,42,5.60
2008,04,02,09,43,5.70
2008,04,02,09,44,5.80
2008,04,02,09,45,5.80
2008,04,02,09,46,5.90
2008,04,02,09,47,6.00
2008,04,02,09,48,6.20
2008,04,02,09,49,6.30
2008,04,02,09,50,6.30
2008,04,02,09,51,6.40
2008,04,02,09,52,6.50
2008,04,02,09,53,6.70
2008,04,02,09,54,6.80
2008,04,02,09,55,6.90
2008,04,02,09,56,7.00
2008,04,02,09,57,7.10
2008,04,02,09,58,7.20
2008,04,02,09,59,7.20
2008,04,02,10,00,7.20
2008,04,02,10,01,7.10
2008,04,02,10,02,7.10
2008,04,02,10,03,7.00
2008,04,02,10,04,6.80
2008,04,02,10,05,6.70
2008,04,02,10,06,6.60
2008,04,02,10,07,6.50
2008,04,02,10,08,6.50
2008,04,02,10,09,6.40
2008,04,02,10,10,6.30
2008,04,02,10,11,6.30
2008,04,02,10,12,6.30
2008,04,02,10,13,6.30
2008,04,02,10,14,6.40
2008,04,02,10,15,6.50
2008,04,02,10,16,6.60
2008,04,02,10,17,6.70
2008,04,02,10,18,6.80
2008,04,02,10,19,6.90
2008,04,02,10,20,7.00
2008,04,02,10,21,7.00
2008,04,02,10,22,6.90
2008,04,02,10,23,6.80
2008,04,02,10,24,6.80
2008,04,02,10,25,6.80
2008,04,02,10,26,6.80
2008,04,02,10,27,6.80
2008,04,02,10,28,6.80
2008,04,02,10,29,6.90
2008,04,02,10,30,7.00
2008,04,02,10,31,7.00
2008,04,02,10,32,7.00
2008,04,02,10,33,6.90
2008,04,02,10,34,7.00
2008,04,02,10,35,7.00
2008,04,02,10,36,6.90
2008,04,02,10,37,6.80
2008,04,02,10,38,6.70
2008,04,02,10,39,6.80
2008,04,02,10,40,6.80
2008,04,02,10,41,6.90
2008,04,02,10,42,7.00
2008,04,02,10,43,7.00
2008,04,02,10,44,7.10
2008,04,02,10,45,7.10
2008,04,02,10,46,7.10
2008,04,02,10,47,7.20
2008,04,02,10,48,7.20
2008,04,02,10,49,7.20
2008,04,02,10,50,7.00
2008,04,02,10,51,6.90
2008,04,02,10,52,6.80
2008,04,02,10,53,6.90
2008,04,02,10,54,7.10
2008,04,02,10,55,7.20
2008,04,02,10,56,7.40
2008,04,02,10,57,7.50
2008,04,02,10,58,7.60
2008,04,02,10,59,7.70
2008,04,02,11,00,7.70
2008,04,02,11,01,7.70
2008,04,02,11,02,7.70
2008,04,02,11,03,7.60
2008,04,02,11,04,7.50
2008,04,02,11,05,7.40
2008,04,02,11,06,7.30
2008,04,02,11,07,7.30
2008,04,02,11,08,7.40
2008,04,02,11,09,7.40
2008,04,02,11,10,7.50
2008,04,02,11,11,7.60
2008,04,02,11,12,7.60
2008,04,02,11,13,7.50
2008,04,02,11,14,7.50
2008,04,02,11,15,7.40
2008,04,02,11,16,7.30
2008,04,02,11,17,7.20
2008,04,02,11,18,7.20
2008,04,02,11,19,7.10
2008,04,02,11,20,7.00
2008,04,02,11,21,6.90
2008,04,02,11,22,6.90
2008,04,02,11,23,6.80
2008,04,02,11,24,6.70
2008,04,02,11,25,6.70
2008,04,02,11,26,6.70
2008,04,02,11,27,6.70
2008,04,02,11,28,6.70
2008,04,02,11,29,6.70
2008,04,02,11,30,6.70
2008,04,02,11,31,6.60
2008,04,02,11,32,6.60
2008,04,02,11,33,6.50
2008,04,02,11,34,6.40
2008,04,02,11,35,6.40
2008,04,02,11,36,6.30
2008,04,02,11,37,6.30
2008,04,02,11,38,6.30
2008,04,02,11,39,6.30
2008,04,02,11,40,6.30
2008,04,02,11,41,6.30
2008,04,02,11,42,6.30
2008,04,02,11,43,6.30
2008,04,02,11,44,6.30
2008,04,02,11,45,6.30
2008,04,02,11,46,6.40
2008,04,02,11,47,6.40
2008,04,02,11,48,6.40
2008,04,02,11,49,6.40
2008,04,02,11,50,6.50
2008,04,02,11,51,6.60
2008,04,02,11,52,6.60
2008,04,02,11,53,6.70
2008,04,02,11,54,6.70
2008,04,02,11,55,6.80
2008,04,02,11,56,6.80
2008,04,02,11,57,6.80
2008,04,02,11,58,6.80
2008,04,02,11,59,6.80
2008,04,02,12,00,6.80
2008,04,02,12,01,6.80
2008,04,02,12,02,6.90
2008,04,02,12,03,6.90
2008,04,02,12,04,7.00
2008,04,02,12,05,7.00
2008,04,02,12,06,7.00
2008,04,02,12,07,6.90
2008,04,02,12,08,7.00
2008,04,02,12,09,7.10
2008,04,02,12,10,7.20
2008,04,02,12,11,7.20
2008,04,02,12,12,7.20
2008,04,02,12,13,7.30
2008,04,02,12,14,7.30
2008,04,02,12,15,7.40
2008,04,02,12,16,7.40
2008,04,02,12,17,7.50
2008,04,02,12,18,7.50
2008,04,02,12,19,7.50
2008,04,02,12,20,7.50
2008,04,02,12,21,7.40
2008,04,02,12,22,7.30
2008,04,02,12,23,7.20
2008,04,02,12,24,7.20
2008,04,02,12,25,7.10
2008,04,02,12,26,7.10
2008,04,02,12,27,7.10
2008,04,02,12,28,7.00
2008,04,02,12,29,6.90
2008,04,02,12,30,6.80
2008,04,02,12,31,6.90
2008,04,02,12,32,6.90
2008,04,02,12,33,7.00
2008,04,02,12,34,7.10
2008,04,02,12,35,7.10
2008,04,02,12,36,7.10
2008,04,02,12,37,7.10
2008,04,02,12,38,7.10
2008,04,02,12,39,7.10
2008,04,02,12,40,7.00
2008,04,02,12,41,6.90
2008,04,02,12,42,6.90
2008,04,02,12,43,6.90
2008,04,02,12,44,6.90
2008,04,02,12,45,7.00
2008,04,02,12,46,7.00
2008,04,02,12,47,7.20
2008,04,02,12,48,7.20
2008,04,02,12,49,7.20
2008,04,02,12,50,7.10
2008,04,02,12,51,7.10
2008,04,02,12,52,7.10
2008,04,02,12,53,7.10
2008,04,02,12,54,7.10
2008,04,02,12,55,7.20
2008,04,02,12,56,7.20
2008,04,02,12,57,7.20
2008,04,02,12,58,7.20
2008,04,02,12,59,7.20
2008,04,02,13,00,7.20
2008,04,02,13,01,7.20
2008,04,02,13,02,7.20
2008,04,02,13,03,7.20
2008,04,02,13,04,7.30
2008,04,02,13,05,7.40
2008,04,02,13,06,7.40
2008,04,02,13,07,7.40
2008,04,02,13,08,7.40
2008,04,02,13,09,7.40
2008,04,02,13,10,7.30
2008,04,02,13,11,7.30
2008,04,02,13,12,7.30
2008,04,02,13,13,7.30
2008,04,02,13,14,7.40
2008,04,02,13,15,7.40
2008,04,02,13,16,7.40
2008,04,02,13,17,7.40
2008,04,02,13,18,7.50
2008,04,02,13,19,7.60
2008,04,02,13,20,7.70
2008,04,02,13,21,7.70
2008,04,02,13,22,7.60
2008,04,02,13,23,7.60
2008,04,02,13,24,7.60
2008,04,02,13,25,7.70
2008,04,02,13,26,7.70
2008,04,02,13,27,7.70
2008,04,02,13,28,7.80
2008,04,02,13,29,7.80
2008,04,02,13,30,7.90
2008,04,02,13,31,8.00
2008,04,02,13,32,8.10
2008,04,02,13,33,8.20
2008,04,02,13,34,8.30
2008,04,02,13,35,8.50
2008,04,02,13,36,8.60
2008,04,02,13,37,8.60
2008,04,02,13,38,8.60
2008,04,02,13,39,8.50
2008,04,02,13,40,8.40
2008,04,02,13,41,8.20
2008,04,02,13,42,8.10
2008,04,02,13,43,8.00
2008,04,02,13,44,7.90
2008,04,02,13,45,7.90
2008,04,02,13,46,8.00
2008,04,02,13,47,8.00
2008,04,02,13,48,8.10
2008,04,02,13,49,8.10
2008,04,02,13,50,8.20
2008,04,02,13,51,8.10
2008,04,02,13,52,8.10
2008,04,02,13,53,8.10
2008,04,02,13,54,8.00
2008,04,02,13,55,8.00
2008,04,02,13,56,8.10
2008,04,02,13,57,8.00
2008,04,02,13,58,8.10
2008,04,02,13,59,8.10
2008,04,02,14,00,8.10
2008,04,02,14,01,8.10
2008,04,02,14,02,8.10
2008,04,02,14,03,8.00
2008,04,02,14,04,7.90
2008,04,02,14,05,7.90
2008,04,02,14,06,7.80
2008,04,02,14,07,7.80
2008,04,02,14,08,7.80
2008,04,02,14,09,7.80
2008,04,02,14,10,7.70
2008,04,02,14,11,7.70
2008,04,02,14,12,7.70
2008,04,02,14,13,7.70
2008,04,02,14,14,7.60
2008,04,02,14,15,7.60
2008,04,02,14,16,7.50
2008,04,02,14,17,7.60
2008,04,02,14,18,7.60
2008,04,02,14,19,7.60
2008,04,02,14,20,7.60
2008,04,02,14,21,7.60
2008,04,02,14,22,7.60
2008,04,02,14,23,7.70
2008,04,02,14,24,7.70
2008,04,02,14,25,7.80
2008,04,02,14,26,7.80
2008,04,02,14,27,7.80
2008,04,02,14,28,7.90
2008,04,02,14,29,8.00
2008,04,02,14,30,8.10
2008,04,02,14,31,8.20
2008,04,02,14,32,8.20
2008,04,02,14,33,8.20
2008,04,02,14,34,8.20
2008,04,02,14,35,8.30
2008,04,02,14,36,8.30
2008,04,02,14,37,8.30
2008,04,02,14,38,8.30
2008,04,02,14,39,8.30
2008,04,02,14,40,8.20
2008,04,02,14,41,8.10
2008,04,02,14,42,8.10
2008,04,02,14,43,8.10
2008,04,02,14,44,8.00
2008,04,02,14,45,8.00
2008,04,02,14,46,8.10
2008,04,02,14,47,8.10
2008,04,02,14,48,8.10
2008,04,02,14,49,8.20
2008,04,02,14,50,8.20
2008,04,02,14,51,8.20
2008,04,02,14,52,8.30
2008,04,02,14,53,8.30
2008,04,02,14,54,8.30
2008,04,02,14,55,8.20
2008,04,02,14,56,8.20
2008,04,02,14,57,8.10
2008,04,02,14,58,8.10
2008,04,02,14,59,8.10
2008,04,02,15,00,8.20
2008,04,02,15,01,8.20
2008,04,02,15,02,8.20
2008,04,02,15,03,8.20
2008,04,02,15,04,8.10
2008,04,02,15,05,8.10
2008,04,02,15,06,8.10
2008,04,02,15,07,8.10
2008,04,02,15,08,8.00
2008,04,02,15,09,8.00
2008,04,02,15,10,8.00
2008,04,02,15,11,8.10
2008,04,02,15,12,8.20
2008,04,02,15,13,8.20
2008,04,02,15,14,8.20
2008,04,02,15,15,8.20
2008,04,02,15,16,8.20
2008,04,02,15,17,8.30
2008,04,02,15,18,8.30
2008,04,02,15,19,8.30
2008,04,02,15,20,8.30
2008,04,02,15,21,8.30
2008,04,02,15,22,8.40
2008,04,02,15,23,8.40
2008,04,02,15,24,8.40
2008,04,02,15,25,8.40
2008,04,02,15,26,8.30
2008,04,02,15,27,8.20
2008,04,02,15,28,8.10
2008,04,02,15,29,8.10
2008,04,02,15,30,8.10
2008,04,02,15,31,8.10
2008,04,02,15,32,8.10
2008,04,02,15,33,8.10
2008,04,02,15,34,8.20
2008,04,02,15,35,8.20
2008,04,02,15,36,8.20
2008,04,02,15,37,8.20
2008,04,02,15,38,8.20
2008,04,02,15,39,8.20
2008,04,02,15,40,8.30
2008,04,02,15,41,8.30
2008,04,02,15,42,8.30
2008,04,02,15,43,8.30
2008,04,02,15,44,8.20
2008,04,02,15,45,8.20
2008,04,02,15,46,8.20
2008,04,02,15,47,8.20
2008,04,02,15,48,8.20
2008,04,02,15,49,8.20
2008,04,02,15,50,8.20
2008,04,02,15,51,8.20
2008,04,02,15,52,8.20
2008,04,02,15,53,8.20
2008,04,02,15,54,8.30
2008,04,02,15,55,8.40
2008,04,02,15,56,8.50
2008,04,02,15,57,8.60
2008,04,02,15,58,8.60
2008,04,02,15,59,8.60
2008,04,02,16,00,8.60
2008,04,02,16,01,8.70
2008,04,02,16,02,8.60
2008,04,02,16,03,8.60
2008,04,02,16,04,8.60
2008,04,02,16,05,8.60
2008,04,02,16,06,8.60
2008,04,02,16,07,8.70
2008,04,02,16,08,8.70
2008,04,02,16,09,8.80
2008,04,02,16,10,8.80
2008,04,02,16,11,8.90
2008,04,02,16,12,8.90
2008,04,02,16,13,8.90
2008,04,02,16,14,8.90
2008,04,02,16,15,8.90
2008,04,02,16,16,8.90
2008,04,02,16,17,9.00
2008,04,02,16,18,9.00
2008,04,02,16,19,9.00
2008,04,02,16,20,9.00
2008,04,02,16,21,9.00
2008,04,02,16,22,9.00
2008,04,02,16,23,9.10
2008,04,02,16,24,9.20
2008,04,02,16,25,9.20
2008,04,02,16,26,9.20
2008,04,02,16,27,9.20
2008,04,02,16,28,9.30
2008,04,02,16,29,9.30
2008,04,02,16,30,9.30
2008,04,02,16,31,9.40
2008,04,02,16,32,9.40
2008,04,02,16,33,9.50
2008,04,02,16,34,9.50
2008,04,02,16,35,9.50
2008,04,02,16,36,9.40
2008,04,02,16,37,9.50
2008,04,02,16,38,9.50
2008,04,02,16,39,9.50
2008,04,02,16,40,9.60
2008,04,02,16,41,9.60
2008,04,02,16,42,9.60
2008,04,02,16,43,9.50
2008,04,02,16,44,9.50
2008,04,02,16,45,9.40
2008,04,02,16,46,9.40
2008,04,02,16,47,9.40
2008,04,02,16,48,9.40
2008,04,02,16,49,9.30
2008,04,02,16,50,9.30
2008,04,02,16,51,9.20
2008,04,02,16,52,9.20
2008,04,02,16,53,9.10
2008,04,02,16,54,9.10
2008,04,02,16,55,9.10
2008,04,02,16,56,9.20
2008,04,02,16,57,9.30
2008,04,02,16,58,9.40
2008,04,02,16,59,9.50
2008,04,02,17,00,9.60
2008,04,02,17,01,9.60
2008,04,02,17,02,9.60
2008,04,02,17,03,9.60
2008,04,02,17,04,9.60
2008,04,02,17,05,9.50
2008,04,02,17,06,9.40
2008,04,02,17,07,9.30
2008,04,02,17,08,9.30
2008,04,02,17,09,9.30
2008,04,02,17,10,9.40
2008,04,02,17,11,9.40
2008,04,02,17,12,9.40
2008,04,02,17,13,9.50
2008,04,02,17,14,9.60
2008,04,02,17,15,9.60
2008,04,02,17,16,9.60
2008,04,02,17,17,9.50
2008,04,02,17,18,9.40
2008,04,02,17,19,9.30
2008,04,02,17,20,9.20
2008,04,02,17,21,9.20
2008,04,02,17,22,9.30
2008,04,02,17,23,9.30
2008,04,02,17,24,9.30
2008,04,02,17,25,9.40
2008,04,02,17,26,9.40
2008,04,02,17,27,9.50
2008,04,02,17,28,9.60
2008,04,02,17,29,9.60
2008,04,02,17,30,9.70
2008,04,02,17,31,9.80
2008,04,02,17,32,9.80
2008,04,02,17,33,9.70
2008,04,02,17,34,9.60
2008,04,02,17,35,9.50
2008,04,02,17,36,9.30
2008,04,02,17,37,9.30
2008,04,02,17,38,9.30
2008,04,02,17,39,9.30
2008,04,02,17,40,9.30
2008,04,02,17,41,9.40
2008,04,02,17,42,9.30
2008,04,02,17,43,9.20
2008,04,02,17,44,9.20
2008,04,02,17,45,9.10
2008,04,02,17,46,9.10
2008,04,02,17,47,9.10
2008,04,02,17,48,9.10
2008,04,02,17,49,9.10
2008,04,02,17,50,9.10
2008,04,02,17,51,9.00
2008,04,02,17,52,9.00
2008,04,02,17,53,8.90
2008,04,02,17,54,8.90
2008,04,02,17,55,8.90
2008,04,02,17,56,8.90
2008,04,02,17,57,8.90
2008,04,02,17,58,8.90
2008,04,02,17,59,8.90
2008,04,02,18,00,8.90
2008,04,02,18,01,8.90
2008,04,02,18,02,9.00
2008,04,02,18,03,9.00
2008,04,02,18,04,9.00
2008,04,02,18,05,9.00
2008,04,02,18,06,8.90
2008,04,02,18,07,8.90
2008,04,02,18,08,8.90
2008,04,02,18,09,8.90
2008,04,02,18,10,8.90
2008,04,02,18,11,8.90
2008,04,02,18,12,8.90
2008,04,02,18,13,8.90
2008,04,02,18,14,8.90
2008,04,02,18,15,9.00
2008,04,02,18,16,9.00
2008,04,02,18,17,9.00
2008,04,02,18,18,9.00
2008,04,02,18,19,9.00
2008,04,02,18,20,9.00
2008,04,02,18,21,9.00
2008,04,02,18,22,9.10
2008,04,02,18,23,9.10
2008,04,02,18,24,9.10
2008,04,02,18,25,9.00
2008,04,02,18,26,9.00
2008,04,02,18,27,9.00
2008,04,02,18,28,9.00
2008,04,02,18,29,9.00
2008,04,02,18,30,9.00
2008,04,02,18,31,9.00
2008,04,02,18,32,9.00
2008,04,02,18,33,9.00
2008,04,02,18,34,9.00
2008,04,02,18,35,8.90
2008,04,02,18,36,8.90
2008,04,02,18,37,8.80
2008,04,02,18,38,8.80
2008,04,02,18,39,8.70
2008,04,02,18,40,8.70
2008,04,02,18,41,8.60
2008,04,02,18,42,8.50
2008,04,02,18,43,8.50
2008,04,02,18,44,8.40
2008,04,02,18,45,8.30
2008,04,02,18,46,8.40
2008,04,02,18,47,8.40
2008,04,02,18,48,8.40
2008,04,02,18,49,8.40
2008,04,02,18,50,8.40
2008,04,02,18,51,8.50
2008,04,02,18,52,8.50
2008,04,02,18,53,8.50
2008,04,02,18,54,8.50
2008,04,02,18,55,8.50